Location: Barletta
(41.3170°N, 16.2830°E)
Time: 12:06:14
(UTC+02:00)

ISS - Visible Passes

Search period start: 11 May 2021 00:00
Search period end: 21 May 2021 00:00
Orbit: 418 x 421 km, 51.6° (Epoch: 11 May)

Date Brightness Start Highest point End Pass type
(mag) Time Alt. Az. Time Alt. Az. Time Alt. Az.
11 May -0.8 02:04:20 15° NNW 02:04:33 15° N 02:06:40 10° NNE visible
11 May -0.8 03:40:03 10° NNW 03:42:22 17° NNE 03:44:40 10° NE visible
12 May -0.5 01:18:16 14° NNE 01:18:16 14° NNE 01:19:16 10° NNE visible
12 May -0.6 02:52:38 10° NNW 02:54:41 15° N 02:56:46 10° NE visible
12 May -2.0 04:29:06 10° NW 04:32:15 35° NNE 04:35:23 10° E visible
13 May -0.5 02:05:04 10° NNW 02:07:00 14° N 02:08:56 10° NE visible
13 May -1.4 03:41:48 10° NW 03:44:41 25° NNE 03:47:35 10° E visible
14 May -0.6 01:18:38 14° NNW 01:19:18 14° N 01:21:15 10° NNE visible
14 May -1.0 02:54:28 10° NNW 02:57:05 20° NNE 02:59:41 10° ENE visible
14 May -3.7 04:30:53 10° NW 04:34:17 86° NNE 04:37:39 10° SE visible
14 May -2.9 21:14:28 10° SSW 21:17:22 27° SE 21:20:17 10° ENE visible
14 May -2.3 22:50:55 10° W 22:54:05 38° NNW 22:55:37 24° NNE visible
15 May -0.6 00:29:30 10° NW 00:31:37 15° N 00:33:43 10° NNE visible
15 May -0.7 02:07:07 10° NNW 02:09:26 17° NNE 02:11:44 10° NE visible
15 May -2.9 03:43:30 10° NW 03:46:50 53° NNE 03:50:08 10° ESE visible
15 May -3.2 22:03:16 10° WSW 22:06:36 59° NNW 22:09:56 10° NE visible
15 May -0.8 23:41:34 10° WNW 23:43:56 17° NNW 23:46:18 10° NNE visible
16 May -0.6 01:19:41 10° NNW 01:21:45 15° N 01:23:49 10° NE visible
16 May -2.1 02:56:09 10° NW 02:59:18 35° NNE 03:02:26 10° E visible
16 May -3.0 04:33:02 10° WNW 04:36:05 31° SW 04:39:06 10° SSE visible
16 May -3.9 21:15:47 10° SW 21:19:08 84° SSE 21:22:31 10° NE visible
16 May -1.1 22:53:39 10° WNW 22:56:18 21° NNW 22:58:58 10° NE visible
17 May -0.5 00:32:08 10° NNW 00:34:03 14° N 00:35:58 10° NE visible
17 May -1.5 02:08:50 10° NW 02:11:44 26° NNE 02:14:37 10° E visible
17 May -3.7 03:45:25 10° WNW 03:48:44 54° SW 03:52:01 10° SE visible
17 May -1.5 22:05:45 10° W 22:08:41 27° NNW 22:11:38 10° NE visible
17 May -0.5 23:44:24 10° NW 23:46:21 14° N 23:48:17 10° NNE visible
18 May -0.9 01:21:31 10° NNW 01:22:56 17° N 01:22:56 17° N visible
18 May -2.1 21:17:57 10° W 21:21:08 38° NNW 21:24:19 10° NE visible
18 May -0.6 22:56:33 10° NW 22:58:39 15° N 23:00:45 10° NNE visible
19 May -0.8 00:34:09 10° NNW 00:36:28 17° NNE 00:36:31 17° NNE visible
19 May -0.8 22:08:37 10° WNW 22:10:58 17° NNW 22:13:19 10° NNE visible
19 May -0.7 23:46:43 10° NNW 23:48:46 15° N 23:50:21 12° NE visible
20 May -0.5 01:23:11 10° NW 01:23:17 11° NW 01:23:17 11° NW visible
20 May -1.0 21:20:40 10° WNW 21:23:19 21° NNW 21:25:58 10° NNE visible
20 May -0.7 22:59:09 10° NNW 23:01:04 14° N 23:02:59 10° NE visible
